Weather in Velikosele

Russia / Republic of Crimea     45°37′19″N   34°44′30″E
temp.,
°C
wind,
m/s
gust,
m/s
humid.,
%
clouds,
%
prec.,
mm/h
press.,
hPa
HPBL,
m
1 march, mon
mon100:00+4nw4786100 0.3 1024557
03:00+3w3589100 0.3 1024247
06:00+1w3591100 0.1 1024146
09:00+2wnw358293 0.1 1025336
12:00+5nnw226073 0.1 10261023
15:00+5nne336687 0.1 1026784
18:00+4ne346991 0.1 1027457
21:00+2ene118390 0.1 102923
2 march, tue
tue200:00+1wnw118470 0.0 103022
03:00+3nw227783 0.1 103153
06:00+1n348294 0.0 103085
09:00+2nw237147 0.0 1031200
12:00+6w455430 0.0 10301136
15:00+7wnw575138 0.0 10291246
18:00+6w59590 0.0 1026908
21:00+3wsw7137150 0.0 1025642
3 march, wed
wed300:00+3wsw8157633 0.0 1023558
03:00+4wsw9178255 0.0 1021641
06:00+4wnw6118874 0.0 1021429
09:00+5nnw697986 0.0 1022831
12:00+6nnw785897 0.1 10241309
15:00+8nnw575259 0.1 10251233
18:00+6nnw36560 0.0 1026395
21:00+3nnw23710 0.0 102843
4 march, thu
thu400:00+2nw12730 0.0 102822
03:00+1wsw22740 0.0 102822
06:00+1wsw22760 0.0 102722
09:00+4sw24630 0.0 1027172
12:00+9sw45410 0.0 10251278
15:00+10wsw56400 0.0 10231460
18:00+8wsw48570 0.0 1021529
21:00+4wsw410720 0.0 1021363
5 march, fri
fri500:00+2sw34810 0.0 102092
03:00+2ssw33850 0.0 101954
06:00+1ssw23860 0.0 101848
09:00+4ssw36698 0.0 1018287
12:00+11sw46430 0.0 1017823
15:00+14wsw57410 0.0 10161268
18:00+11wsw36520 0.0 1015189
21:00+6s35760 0.0 101588